| time (UTC) | temp F | wind direction | speed MPH | gust MPH | rain 1hr in | rain 24hr in | rain mn in | humidity % | barometer mb |
| 20260505050545 | 80 | 81 | 0.0 | 3.0 | 0.00 | 0.00 | 0.00 | 69 | 1016.0 |
| 20260505041553 | 81 | 326 | 0.0 | 2.0 | 0.00 | 0.00 | 0.00 | 66 | 1015.7 |
| 20260505041045 | 81 | 319 | 0.0 | 2.0 | 0.00 | 0.00 | 0.00 | 65 | 1015.6 |
| 20260505040544 | 81 | 0 | 1.0 | 2.0 | 0.00 | 0.00 | 0.00 | 66 | 1015.6 |
| 20260505040057 | 80 | 0 | 0.0 | 3.0 | 0.00 | 0.00 | 0.00 | 68 | 1015.5 |
| 20260505035544 | 80 | 274 | 0.0 | 3.0 | 0.00 | 0.00 | 0.00 | 68 | 1015.6 |
| 20260505035043 | 80 | 217 | 1.0 | 3.0 | 0.00 | 0.00 | 0.00 | 66 | 1015.7 |
| 20260505034553 | 81 | 302 | 0.0 | 2.0 | 0.00 | 0.00 | 0.00 | 66 | 1015.7 |
| 20260505034044 | 80 | 333 | 0.0 | 2.0 | 0.00 | 0.00 | 0.00 | 68 | 1015.7 |
| 20260505033542 | 79 | 0 | 1.0 | 2.0 | 0.00 | 0.00 | 0.00 | 68 | 1015.6 |
| 20260505033048 | 80 | 304 | 1.0 | 6.0 | 0.00 | 0.00 | 0.00 | 67 | 1015.7 |
| 20260505032544 | 79 | 0 | 2.0 | 6.0 | 0.00 | 0.00 | 0.00 | 69 | 1015.7 |
| 20260505032041 | 79 | 162 | 2.0 | 6.0 | 0.00 | 0.00 | 0.00 | 70 | 1015.8 |
| 20260505031557 | 79 | 202 | 0.0 | 3.0 | 0.00 | 0.00 | 0.00 | 70 | 1015.7 |
| 20260505031045 | 80 | 120 | 1.0 | 3.0 | 0.00 | 0.00 | 0.00 | 70 | 1015.7 |
| 20260505030543 | 80 | 226 | 0.0 | 3.0 | 0.00 | 0.00 | 0.00 | 71 | 1015.8 |
| 20260505030058 | 79 | 309 | 1.0 | 3.0 | 0.00 | 0.00 | 0.00 | 71 | 1015.9 |
| 20260505025544 | 78 | 340 | 1.0 | 3.0 | 0.00 | 0.00 | 0.00 | 72 | 1015.9 |
| 20260505025044 | 79 | 151 | 1.0 | 4.0 | 0.00 | 0.00 | 0.00 | 73 | 1016.0 |
| 20260505024553 | 78 | 179 | 1.0 | 5.0 | 0.00 | 0.00 | 0.00 | 73 | 1016.2 |
| 20260505024045 | 79 | 169 | 2.0 | 5.0 | 0.00 | 0.00 | 0.00 | 72 | 1016.1 |
| 20260505023542 | 80 | 83 | 1.0 | 3.0 | 0.00 | 0.00 | 0.00 | 72 | 1016.2 |
| 20260505023051 | 79 | 0 | 0.0 | 4.0 | 0.00 | 0.00 | 0.00 | 72 | 1016.4 |
| 20260505022542 | 78 | 291 | 1.0 | 4.0 | 0.00 | 0.00 | 0.00 | 73 | 1016.6 |
| 20260505022047 | 78 | 322 | 1.0 | 2.0 | 0.00 | 0.00 | 0.00 | 71 | 1016.6 |
| 20260505021549 | 78 | 278 | 0.0 | 2.0 | 0.00 | 0.00 | 0.00 | 73 | 1016.7 |
| 20260505021044 | 77 | 200 | 1.0 | 3.0 | 0.00 | 0.00 | 0.00 | 74 | 1016.9 |
| 20260505020548 | 77 | 175 | 0.0 | 3.0 | 0.00 | 0.00 | 0.00 | 76 | 1016.9 |
| 20260505020054 | 76 | 180 | 0.0 | 3.0 | 0.00 | 0.00 | 0.00 | 76 | 1016.6 |
| 20260505015544 | 76 | 0 | 1.0 | 5.0 | 0.00 | 0.00 | 0.00 | 76 | 1016.8 |
| 20260505015045 | 76 | 127 | 2.0 | 5.0 | 0.00 | 0.00 | 0.00 | 75 | 1017.0 |
| 20260505014603 | 77 | 185 | 3.0 | 5.0 | 0.00 | 0.00 | 0.00 | 76 | 1017.2 |
| 20260505014049 | 76 | 0 | 0.0 | 3.0 | 0.00 | 0.00 | 0.00 | 77 | 1017.2 |
| 20260505013545 | 77 | 0 | 1.0 | 3.0 | 0.00 | 0.00 | 0.00 | 76 | 1017.2 |
| 20260505013051 | 77 | 112 | 1.0 | 4.0 | 0.00 | 0.00 | 0.00 | 75 | 1017.3 |
| 20260505012545 | 76 | 263 | 0.0 | 4.0 | 0.00 | 0.00 | 0.00 | 78 | 1017.4 |
| 20260505012045 | 76 | 244 | 0.0 | 4.0 | 0.00 | 0.00 | 0.00 | 78 | 1017.5 |
| 20260505011552 | 76 | 0 | 0.0 | 4.0 | 0.00 | 0.00 | 0.00 | 78 | 1017.6 |
| 20260505011045 | 76 | 0 | 0.0 | 4.0 | 0.00 | 0.00 | 0.00 | 78 | 1017.6 |
| 20260505010545 | 77 | 0 | 1.0 | 4.0 | 0.00 | 0.00 | 0.00 | 76 | 1017.8 |
| 20260505010050 | 78 | 0 | 0.0 | 0.0 | 0.00 | 0.00 | 0.00 | 77 | 1017.9 |
| 20260505005542 | 77 | 0 | 0.0 | 0.0 | 0.00 | 0.00 | 0.00 | 80 | 1018.0 |
| 20260505005042 | 76 | 0 | 0.0 | 0.0 | 0.00 | 0.00 | 0.00 | 82 | 1018.0 |
| 20260505004556 | 74 | 0 | 0.0 | 2.0 | 0.00 | 0.00 | 0.00 | 85 | 1018.0 |
| 20260505004041 | 74 | 0 | 0.0 | 2.0 | 0.00 | 0.00 | 0.00 | 83 | 1018.1 |
| 20260505003541 | 74 | 236 | 0.0 | 7.0 | 0.00 | 0.00 | 0.00 | 83 | 1018.2 |
| 20260505003046 | 74 | 0 | 2.0 | 7.0 | 0.00 | 0.00 | 0.00 | 83 | 1018.1 |
| 20260505002546 | 75 | 176 | 1.0 | 5.0 | 0.00 | 0.00 | 0.00 | 83 | 1018.2 |
| 20260505002044 | 74 | 0 | 0.0 | 3.0 | 0.00 | 0.00 | 0.00 | 84 | 1018.3 |
| 20260505001553 | 74 | 0 | 0.0 | 0.0 | 0.00 | 0.00 | 0.00 | 84 | 1018.3 |
| 20260505001043 | 73 | 0 | 0.0 | 2.0 | 0.00 | 0.00 | 0.00 | 87 | 1018.3 |
| 20260505000542 | 73 | 0 | 0.0 | 3.0 | 0.00 | 0.00 | 0.00 | 86 | 1018.3 |
| 20260505000057 | 73 | 208 | 0.0 | 5.0 | 0.00 | 0.00 | 0.00 | 84 | 1018.4 |
| 20260504235545 | 74 | 174 | 1.0 | 5.0 | 0.00 | 0.00 | 0.00 | 85 | 1018.4 |
| 20260504235044 | 74 | 0 | 0.0 | 1.0 | 0.00 | 0.00 | 0.00 | 86 | 1018.4 |
| 20260504234551 | 73 | 0 | 0.0 | 1.0 | 0.00 | 0.00 | 0.00 | 87 | 1018.4 |
| 20260504234041 | 73 | 168 | 0.0 | 1.0 | 0.00 | 0.00 | 0.00 | 88 | 1018.5 |
| 20260504233542 | 72 | 135 | 0.0 | 3.0 | 0.00 | 0.00 | 0.00 | 89 | 1018.6 |
| 20260504233052 | 72 | 0 | 1.0 | 3.0 | 0.00 | 0.00 | 0.00 | 89 | 1018.6 |
| 20260504232542 | 72 | 226 | 1.0 | 3.0 | 0.00 | 0.00 | 0.00 | 90 | 1018.6 |
| 20260504232046 | 72 | 269 | 0.0 | 4.0 | 0.00 | 0.00 | 0.00 | 92 | 1018.7 |
| 20260504231553 | 71 | 137 | 0.0 | 4.0 | 0.00 | 0.00 | 0.00 | 92 | 1018.6 |
| 20260504231044 | 70 | 193 | 1.0 | 4.0 | 0.00 | 0.00 | 0.00 | 92 | 1018.7 |
| 20260504230546 | 71 | 179 | 1.0 | 4.0 | 0.00 | 0.00 | 0.00 | 92 | 1018.6 |
| 20260504230052 | 71 | 238 | 1.0 | 4.0 | 0.00 | 0.00 | 0.00 | 93 | 1018.6 |
| 20260504225544 | 70 | 216 | 0.0 | 2.0 | 0.00 | 0.00 | 0.00 | 94 | 1018.7 |
| 20260504225046 | 70 | 195 | 1.0 | 2.0 | 0.00 | 0.00 | 0.00 | 95 | 1018.6 |
| 20260504224552 | 70 | 183 | 0.0 | 2.0 | 0.00 | 0.00 | 0.00 | 96 | 1018.6 |
| 20260504224043 | 69 | 210 | 0.0 | 3.0 | 0.00 | 0.00 | 0.00 | 97 | 1018.7 |
| 20260504223543 | 69 | 0 | 1.0 | 3.0 | 0.00 | 0.00 | 0.00 | 97 | 1018.7 |
| 20260504223053 | 69 | 208 | 0.0 | 1.0 | 0.00 | 0.00 | 0.00 | 98 | 1018.6 |
| 20260504222547 | 69 | 273 | 0.0 | 0.0 | 0.00 | 0.00 | 0.00 | 99 | 1018.6 |
| 20260504222044 | 69 | 0 | 0.0 | 0.0 | 0.00 | 0.00 | 0.00 | 99 | 1018.6 |
| 20260504221548 | 68 | 0 | 0.0 | 0.0 | 0.00 | 0.00 | 0.00 | 99 | 1018.6 |
| 20260504221043 | 68 | 0 | 0.0 | 0.0 | 0.00 | 0.00 | 0.00 | 99 | 1018.7 |
| 20260504220543 | 68 | 0 | 0.0 | 0.0 | 0.00 | 0.00 | 0.00 | 99 | 1018.6 |
| 20260504220055 | 67 | 0 | 0.0 | 0.0 | 0.00 | 0.00 | 0.00 | 99 | 1018.5 |
| 20260504215544 | 66 | 0 | 0.0 | 0.0 | 0.00 | 0.01 | 0.00 | 99 | 1018.5 |
| 20260504215042 | 66 | 0 | 0.0 | 0.0 | 0.00 | 0.01 | 0.00 | 99 | 1018.5 |
| 20260504214557 | 65 | 0 | 0.0 | 0.0 | 0.00 | 0.01 | 0.00 | 99 | 1018.5 |
| 20260504214044 | 65 | 0 | 0.0 | 0.0 | 0.00 | 0.01 | 0.00 | 98 | 1018.5 |
| 20260504213543 | 64 | 0 | 0.0 | 0.0 | 0.00 | 0.01 | 0.00 | 98 | 1018.5 |
| 20260504213055 | 65 | 0 | 0.0 | 0.0 | 0.00 | 0.01 | 0.00 | 98 | 1018.5 |
| 20260504212542 | 64 | 0 | 0.0 | 0.0 | 0.00 | 0.01 | 0.00 | 98 | 1018.4 |
| 20260504212045 | 64 | 0 | 0.0 | 0.0 | 0.00 | 0.01 | 0.00 | 99 | 1018.5 |
| 20260504211548 | 64 | 0 | 0.0 | 0.0 | 0.00 | 0.01 | 0.00 | 99 | 1018.4 |
| 20260504211043 | 64 | 0 | 0.0 | 0.0 | 0.00 | 0.01 | 0.00 | 98 | 1018.4 |
| 20260504210543 | 64 | 0 | 0.0 | 0.0 | 0.00 | 0.01 | 0.00 | 98 | 1018.4 |
| 20260504205543 | 63 | 0 | 0.0 | 0.0 | 0.00 | 0.02 | 0.00 | 98 | 1018.3 |
| 20260504205041 | 64 | 0 | 0.0 | 0.0 | 0.00 | 0.02 | 0.00 | 98 | 1018.2 |
| 20260504204601 | 63 | 0 | 0.0 | 0.0 | 0.00 | 0.02 | 0.00 | 99 | 1018.2 |
| 20260504204041 | 63 | 0 | 0.0 | 0.0 | 0.00 | 0.02 | 0.00 | 98 | 1018.1 |
| 20260504203543 | 63 | 0 | 0.0 | 0.0 | 0.00 | 0.02 | 0.00 | 98 | 1018.1 |
| 20260504203122 | 63 | 0 | 0.0 | 0.0 | 0.00 | 0.02 | 0.00 | 98 | 1018.1 |
| 20260504202542 | 63 | 0 | 0.0 | 0.0 | 0.00 | 0.02 | 0.00 | 98 | 1018.1 |
| 20260504202044 | 63 | 0 | 0.0 | 0.0 | 0.00 | 0.02 | 0.00 | 98 | 1018.1 |
| 20260504201550 | 62 | 0 | 0.0 | 0.0 | 0.00 | 0.02 | 0.00 | 98 | 1018.2 |
| 20260504201043 | 62 | 0 | 0.0 | 0.0 | 0.00 | 0.02 | 0.00 | 98 | 1018.0 |
| 20260504200543 | 62 | 0 | 0.0 | 0.0 | 0.00 | 0.02 | 0.00 | 98 | 1018.0 |
| 20260504200051 | 62 | 0 | 0.0 | 0.0 | 0.00 | 0.02 | 0.00 | 98 | 1017.9 |
| 20260504195542 | 62 | 0 | 0.0 | 0.0 | 0.00 | 0.02 | 0.00 | 98 | 1018.0 |
| 20260504195043 | 63 | 0 | 0.0 | 0.0 | 0.00 | 0.02 | 0.00 | 98 | 1017.7 |
| 20260504194550 | 63 | 0 | 0.0 | 0.0 | 0.00 | 0.02 | 0.00 | 98 | 1017.8 |
| 20260504194042 | 63 | 0 | 0.0 | 0.0 | 0.00 | 0.02 | 0.00 | 98 | 1017.6 |
| 20260504193546 | 62 | 0 | 0.0 | 0.0 | 0.00 | 0.02 | 0.00 | 98 | 1017.7 |
| 20260504193058 | 62 | 0 | 0.0 | 0.0 | 0.00 | 0.02 | 0.00 | 98 | 1017.6 |
| 20260504192546 | 62 | 0 | 0.0 | 0.0 | 0.00 | 0.02 | 0.00 | 98 | 1017.5 |
| 20260504192044 | 62 | 0 | 0.0 | 0.0 | 0.00 | 0.02 | 0.00 | 98 | 1017.4 |
| 20260504191558 | 62 | 0 | 0.0 | 0.0 | 0.00 | 0.02 | 0.00 | 98 | 1017.3 |
| 20260504191043 | 62 | 0 | 0.0 | 0.0 | 0.00 | 0.02 | 0.00 | 98 | 1017.3 |
| 20260504190544 | 62 | 0 | 0.0 | 0.0 | 0.00 | 0.02 | 0.00 | 98 | 1017.5 |
| 20260504190054 | 62 | 0 | 0.0 | 0.0 | 0.00 | 0.02 | 0.00 | 98 | 1017.3 |
| 20260504185543 | 62 | 0 | 0.0 | 0.0 | 0.00 | 0.02 | 0.00 | 98 | 1017.3 |
| 20260504185043 | 63 | 0 | 0.0 | 0.0 | 0.00 | 0.02 | 0.00 | 98 | 1017.2 |
| 20260504184556 | 63 | 0 | 0.0 | 0.0 | 0.00 | 0.02 | 0.00 | 98 | 1017.4 |
| 20260504184043 | 63 | 0 | 0.0 | 0.0 | 0.00 | 0.02 | 0.00 | 98 | 1017.4 |
| 20260504183544 | 63 | 0 | 0.0 | 0.0 | 0.00 | 0.02 | 0.00 | 98 | 1017.1 |
| 20260504183058 | 62 | 0 | 0.0 | 0.0 | 0.00 | 0.02 | 0.00 | 98 | 1017.2 |
| 20260504182543 | 62 | 0 | 0.0 | 0.0 | 0.00 | 0.02 | 0.00 | 98 | 1017.3 |
| 20260504182043 | 62 | 0 | 0.0 | 0.0 | 0.00 | 0.02 | 0.00 | 98 | 1017.3 |
| 20260504181554 | 62 | 0 | 0.0 | 0.0 | 0.00 | 0.02 | 0.00 | 97 | 1017.1 |
| 20260504181041 | 62 | 0 | 0.0 | 0.0 | 0.00 | 0.02 | 0.00 | 98 | 1017.0 |
| 20260504180543 | 63 | 0 | 0.0 | 0.0 | 0.00 | 0.02 | 0.00 | 98 | 1016.9 |
| 20260504180106 | 63 | 0 | 0.0 | 0.0 | 0.00 | 0.02 | 0.00 | 98 | 1016.8 |
| 20260504175543 | 62 | 0 | 0.0 | 0.0 | 0.00 | 0.02 | 0.00 | 98 | 1016.8 |
| 20260504175043 | 63 | 0 | 0.0 | 0.0 | 0.00 | 0.02 | 0.00 | 98 | 1016.9 |
| 20260504174550 | 62 | 0 | 0.0 | 0.0 | 0.00 | 0.02 | 0.00 | 98 | 1016.8 |
| 20260504174043 | 62 | 0 | 0.0 | 0.0 | 0.00 | 0.02 | 0.00 | 98 | 1017.0 |
| 20260504173542 | 62 | 0 | 0.0 | 0.0 | 0.00 | 0.02 | 0.00 | 98 | 1017.0 |
| 20260504173105 | 62 | 0 | 0.0 | 0.0 | 0.00 | 0.02 | 0.00 | 98 | 1017.1 |
| 20260504172542 | 63 | 0 | 0.0 | 0.0 | 0.00 | 0.02 | 0.00 | 98 | 1017.2 |
| 20260504172042 | 62 | 0 | 0.0 | 0.0 | 0.00 | 0.02 | 0.00 | 98 | 1017.1 |
| 20260504171601 | 62 | 0 | 0.0 | 0.0 | 0.00 | 0.02 | 0.00 | 98 | 1017.2 |
| 20260504171043 | 62 | 0 | 0.0 | 0.0 | 0.00 | 0.01 | 0.00 | 98 | 1017.2 |
| 20260504170543 | 62 | 0 | 0.0 | 0.0 | 0.00 | 0.01 | 0.00 | 98 | 1017.1 |
| 20260504151044 | 63 | 0 | 0.0 | 0.0 | 0.00 | 0.01 | 0.00 | 97 | 1017.8 |
| 20260504150546 | 63 | 0 | 0.0 | 0.0 | 0.00 | 0.01 | 0.00 | 97 | 1017.8 |
| 20260504141044 | 64 | 0 | 0.0 | 0.0 | 0.00 | 0.01 | 0.00 | 97 | 1018.1 |
| 20260504140547 | 64 | 0 | 0.0 | 0.0 | 0.00 | 0.01 | 0.00 | 97 | 1018.1 |
| 20260504130545 | 65 | 0 | 0.0 | 0.0 | 0.00 | 0.01 | 0.01 | 97 | 1018.6 |
| 20260504110544 | 66 | 0 | 0.0 | 0.0 | 0.00 | 0.03 | 0.01 | 94 | 1019.3 |
| 20260504100544 | 69 | 0 | 0.0 | 1.0 | 0.00 | 0.03 | 0.01 | 92 | 1019.3 |
| 20260504081549 | 71 | 0 | 0.0 | 1.0 | 0.00 | 0.03 | 0.01 | 85 | 1018.0 |
| 20260504081043 | 72 | 0 | 0.0 | 4.0 | 0.00 | 0.03 | 0.01 | 85 | 1018.0 |
| 20260504080546 | 72 | 118 | 0.0 | 4.0 | 0.00 | 0.03 | 0.01 | 85 | 1017.9 |